Location: Limoges
(45.8354°N, 1.2645°E)
Time: 12:51:22
(UTC+01:00)

Vanguard 1 Rocket - Visible Passes

Search period start: 22 February 2024 00:00
Search period end: 03 March 2024 00:00
Orbit: 654 x 4218 km, 34.3° (Epoch: 21 February)

Date Brightness Start Highest point End Pass type
(mag) Time Alt. Az. Time Alt. Az. Time Alt. Az.
22 Feb 11.8 06:28:42 10° S 06:38:31 16° SSE 06:46:07 10° ESE visible
24 Feb 11.6 06:25:58 10° S 06:39:55 21° SSE 06:49:52 10° ESE visible
25 Feb 11.8 05:16:27 10° SSE 05:26:30 15° SE 05:34:47 10° ESE visible
26 Feb 11.4 06:24:17 10° SSW 06:41:14 27° SSE 06:52:43 10° E visible
27 Feb 11.6 05:13:00 10° S 05:27:42 20° SE 05:38:58 10° ESE visible
28 Feb 11.9 04:05:41 10° SSE 04:14:09 13° SE 04:21:40 10° ESE visible
28 Feb 11.2 06:23:14 10° SSW 06:42:30 33° SSE 06:55:07 10° E visible
29 Feb 11.5 05:10:55 10° S 05:28:46 26° SE 05:42:00 10° E visible
01 Mar 11.7 04:01:01 10° S 04:15:03 18° SE 04:26:52 10° ESE visible
01 Mar 11.0 06:22:39 10° SW 06:43:41 39° SSE 06:57:16 10° E visible
02 Mar 11.3 05:09:37 10° SSW 05:29:46 32° SSE 05:44:28 10° E visible
